Brinson, GA

7:40 AM EDT on July 26, 2016 (GMT -0400)
Decatur County Industrial

Weather History for KBGE - August, 2013

Change the Weather History Date:

Sunday, August 4, 2013

  Actual Average (KMAI) Record (KMAI)
Temperature  
Mean Temperature 87 °F 82 °F  
Max Temperature 96 °F 91 °F 100 °F (2011)
Min Temperature 78 °F 73 °F 70 °F (1998)
Degree Days  
Heating Degree Days 0    
Month to date heating degree days  
Since 1 June heating degree days  
Since 1 July heating degree days  
Cooling Degree Days 22    
Month to date cooling degree days  
Year to date cooling degree days  
Since 1 June cooling degree days  
Growing Degree Days 37 (Base 50)    
Moisture  
Dew Point 77 °F    
Average Humidity 82    
Maximum Humidity 100    
Minimum Humidity 53    
Precipitation  
Precipitation 0.00 in 0.22 in 1.95 in (2006)
Month to date precipitation 0.85  
Year to date precipitation 33.75  
Sea Level Pressure  
Sea Level Pressure 30.02 in    
Wind  
Wind Speed 4 mph (West)    
Max Wind Speed 33 mph    
Max Gust Speed 40 mph    
Visibility 8 miles    
Events Rain , Thunderstorm    
T = Trace of Precipitation, MM = Missing Value Source: NWS Daily Summary

Daily Weather History Graph

Daily Weather History Graph

Search for Another Location

Airport or City:

Trip Planner

Search our weather history database for the weather conditions in past years. The results will help you decide how hot, cold, wet, or windy it might be!

Date:

Astronomy

Aug. 04, 2013 Rise Set
Actual Time 6:57 AM EDT 8:30 PM EDT
Civil Twilight 6:31 AM EDT 8:56 PM EDT
Nautical Twilight 6:00 AM EDT 9:28 PM EDT
Astronomical Twilight 5:27 AM EDT 10:00 PM EDT
Moon 4:59 AM EDT (8/4) 6:53 PM EDT (8/4)
Length of Visible Light 14h 25m
Length of Day
13h 33m
Waning Crescent, 5% of the Moon is Illuminated
Aug 4
Waning Crescent
Aug 6
New
Aug 14
First Quarter
Aug 20
Full
Aug 28
Last Quarter

Hourly Weather History & Observations

Time (EDT) Temp. Heat Index Dew Point Humidity Pressure Visibility Wind Dir Wind Speed Gust Speed Precip Events Conditions
12:15 AM 78.8 °F - 77.0 °F 94% 30.06 in 10.0 mi WSW 3.5 mph - N/A   Clear
12:35 AM 78.8 °F - 77.0 °F 94% 30.06 in 10.0 mi WSW 3.5 mph - N/A   Clear
12:55 AM 78.8 °F - 77.0 °F 94% 30.06 in 10.0 mi WSW 3.5 mph - N/A   Clear
1:15 AM 78.8 °F - 77.0 °F 94% 30.06 in 10.0 mi Calm Calm - N/A   Clear
1:35 AM 78.8 °F - 77.0 °F 94% 30.06 in 7.0 mi Calm Calm - N/A   Clear
1:55 AM 78.8 °F - 77.0 °F 94% 30.05 in 7.0 mi Calm Calm - N/A   Clear
2:15 AM 78.8 °F - 77.0 °F 94% 30.05 in 7.0 mi Calm Calm - N/A   Clear
2:35 AM 78.8 °F - 77.0 °F 94% 30.05 in 7.0 mi Calm Calm - N/A   Clear
2:55 AM 78.8 °F - 77.0 °F 94% 30.04 in 5.0 mi SW 3.5 mph - N/A   Clear
3:15 AM 78.8 °F - 77.0 °F 94% 30.03 in 5.0 mi SW 5.8 mph - N/A   Clear
3:35 AM 78.8 °F - 77.0 °F 94% 30.03 in 5.0 mi WSW 5.8 mph - N/A   Clear
3:55 AM 78.8 °F - 77.0 °F 94% 30.02 in 5.0 mi WSW 4.6 mph - N/A   Clear
4:15 AM 78.8 °F - 77.0 °F 94% 30.03 in 4.0 mi WSW 4.6 mph - N/A   Mostly Cloudy
4:35 AM 78.8 °F - 77.0 °F 94% 30.03 in 4.0 mi WSW 5.8 mph - N/A   Mostly Cloudy
4:55 AM 78.8 °F - 77.0 °F 94% 30.03 in 3.0 mi West 4.6 mph - N/A   Overcast
5:15 AM 78.8 °F - 77.0 °F 94% 30.03 in 3.0 mi WNW 4.6 mph - N/A   Overcast
5:35 AM 78.8 °F - 78.8 °F 100% 30.03 in 3.0 mi WNW 4.6 mph - N/A   Overcast
5:55 AM 78.8 °F - 78.8 °F 100% 30.03 in 3.0 mi West 4.6 mph - N/A   Overcast
6:15 AM 80.6 °F 88.1 °F 78.8 °F 94% 30.03 in 3.0 mi West 4.6 mph - N/A   Overcast
6:35 AM 80.6 °F 88.1 °F 78.8 °F 94% 30.03 in 4.0 mi West 5.8 mph - N/A   Overcast
6:55 AM 78.8 °F - 78.8 °F 100% 30.03 in 4.0 mi West 4.6 mph - N/A   Overcast
7:15 AM 78.8 °F - 78.8 °F 100% 30.04 in 2.5 mi West 3.5 mph - N/A   Overcast
7:35 AM 80.6 °F 88.1 °F 78.8 °F 94% 30.04 in 2.5 mi West 5.8 mph - N/A   Overcast
7:55 AM 80.6 °F 88.1 °F 78.8 °F 94% 30.04 in 3.0 mi West 5.8 mph - N/A   Overcast
8:15 AM 80.6 °F 89.3 °F 80.6 °F 100% 30.05 in 3.0 mi West 5.8 mph - N/A   Overcast
8:35 AM 80.6 °F 88.1 °F 78.8 °F 94% 30.05 in 4.0 mi West 5.8 mph - N/A   Mostly Cloudy
8:55 AM 82.4 °F 92.4 °F 78.8 °F 89% 30.05 in 7.0 mi West 4.6 mph - N/A   Scattered Clouds
9:15 AM 84.2 °F 96.1 °F 78.8 °F 84% 30.06 in 7.0 mi West 4.6 mph - N/A   Clear
9:35 AM 86.0 °F 99.3 °F 78.8 °F 79% 30.06 in 10.0 mi West 5.8 mph - N/A   Clear
9:55 AM 86.0 °F 99.3 °F 78.8 °F 79% 30.06 in 10.0 mi WNW 4.6 mph - N/A   Clear
10:15 AM 87.8 °F 102.5 °F 78.8 °F 75% 30.06 in 10.0 mi WNW 4.6 mph - N/A   Clear
10:35 AM 87.8 °F 102.5 °F 78.8 °F 75% 30.06 in 10.0 mi NW 3.5 mph - N/A   Clear
10:55 AM 89.6 °F 104.7 °F 78.8 °F 70% 30.06 in 10.0 mi SW 4.6 mph - N/A   Clear
11:15 AM 91.4 °F 107.2 °F 78.8 °F 66% 30.06 in 10.0 mi West 6.9 mph - N/A   Clear
11:35 AM 93.2 °F 110.2 °F 78.8 °F 63% 30.06 in 10.0 mi West 4.6 mph - N/A   Scattered Clouds
11:55 AM 95.0 °F 112.2 °F 78.8 °F 59% 30.06 in 10.0 mi West 5.8 mph - N/A   Scattered Clouds
12:15 PM 95.0 °F 109.7 °F 77.0 °F 56% 30.05 in 10.0 mi NW 11.5 mph - N/A   Scattered Clouds
12:35 PM 95.0 °F 109.7 °F 77.0 °F 56% 30.05 in 10.0 mi WNW 9.2 mph - N/A   Scattered Clouds
12:55 PM 95.0 °F 109.7 °F 77.0 °F 56% 30.05 in 10.0 mi West 5.8 mph - N/A   Scattered Clouds
1:15 PM 95.0 °F 112.2 °F 78.8 °F 59% 30.04 in 10.0 mi West 10.4 mph - N/A   Scattered Clouds
1:35 PM 95.0 °F 109.7 °F 77.0 °F 56% 30.03 in 10.0 mi WNW 6.9 mph - N/A   Scattered Clouds
1:55 PM 95.0 °F 109.7 °F 77.0 °F 56% 30.02 in 10.0 mi NW 8.1 mph - N/A   Clear
2:15 PM 95.0 °F 109.7 °F 77.0 °F 56% 30.02 in 10.0 mi WNW 8.1 mph - N/A   Clear
2:35 PM 95.0 °F 109.7 °F 77.0 °F 56% 30.01 in 10.0 mi NW 8.1 mph - N/A   Clear
2:55 PM 95.0 °F 107.4 °F 75.2 °F 53% 29.99 in 10.0 mi NW 9.2 mph - N/A   Clear
3:15 PM 95.0 °F 109.7 °F 77.0 °F 56% 29.98 in 10.0 mi WNW 6.9 mph - N/A   Scattered Clouds
3:35 PM 96.8 °F 112.2 °F 77.0 °F 53% 29.98 in 10.0 mi WNW 6.9 mph - N/A   Scattered Clouds
3:55 PM 95.0 °F 109.7 °F 77.0 °F 56% 29.97 in 10.0 mi WSW 4.6 mph - N/A   Scattered Clouds
4:15 PM 95.0 °F 109.7 °F 77.0 °F 56% 29.97 in 10.0 mi WNW 5.8 mph - N/A Thunderstorm Thunderstorm
4:35 PM 86.0 °F 90.4 °F 69.8 °F 58% 29.99 in 10.0 mi North 21.9 mph 29.9 mph N/A Thunderstorm Thunderstorm
4:55 PM 80.6 °F 85.4 °F 73.4 °F 79% 29.97 in 10.0 mi NNE 6.9 mph 27.6 mph N/A Rain , Thunderstorm Light Thunderstorms and Rain
5:15 PM 82.4 °F 89.5 °F 75.2 °F 79% 29.96 in 10.0 mi South 5.8 mph - N/A Rain Light Rain
5:35 PM 86.0 °F 93.4 °F 73.4 °F 66% 29.97 in 10.0 mi SE 3.5 mph - N/A   Clear
5:55 PM 84.2 °F 90.9 °F 73.4 °F 70% 29.97 in 10.0 mi SSE 4.6 mph - N/A Thunderstorm Clear
6:15 PM 84.2 °F 92.3 °F 75.2 °F 74% 29.96 in 10.0 mi SSE 4.6 mph - N/A   Clear
6:35 PM 84.2 °F 92.3 °F 75.2 °F 74% 29.98 in 10.0 mi Calm Calm - N/A Thunderstorm Thunderstorm
6:55 PM 78.8 °F - 73.4 °F 83% 30.03 in 1.2 mi NNW 33.4 mph 40.3 mph N/A Rain , Thunderstorm Heavy Thunderstorms and Rain
7:15 PM 78.8 °F - 73.4 °F 83% 29.98 in 7.0 mi SE 8.1 mph 17.3 mph N/A Rain , Thunderstorm Light Thunderstorms and Rain
7:35 PM 78.8 °F - 77.0 °F 94% 29.98 in 10.0 mi SSW 5.8 mph - N/A Thunderstorm Mostly Cloudy
7:55 PM 80.6 °F 87.1 °F 77.0 °F 89% 29.98 in 10.0 mi Calm Calm - N/A Thunderstorm Scattered Clouds
8:15 PM 78.8 °F - 75.2 °F 89% 30.00 in 10.0 mi Calm Calm - N/A   Scattered Clouds
8:35 PM 78.8 °F - 77.0 °F 94% 30.00 in 7.0 mi Calm Calm - N/A Thunderstorm Scattered Clouds
8:55 PM 78.8 °F - 77.0 °F 94% 30.00 in 7.0 mi Calm Calm - N/A   Clear
9:15 PM 78.8 °F - 77.0 °F 94% 30.00 in 7.0 mi WNW 8.1 mph - N/A   Clear
9:35 PM 78.8 °F - 77.0 °F 94% 30.01 in 7.0 mi Calm Calm - N/A   Clear
9:55 PM 78.8 °F - 77.0 °F 94% 30.02 in 7.0 mi WSW 4.6 mph - N/A   Clear
10:15 PM 78.8 °F - 77.0 °F 94% 30.03 in 10.0 mi WSW 4.6 mph - N/A   Clear
10:35 PM 78.8 °F - 77.0 °F 94% 30.03 in 7.0 mi West 3.5 mph - N/A   Clear
10:55 PM 78.8 °F - 77.0 °F 94% 30.03 in 10.0 mi WSW 3.5 mph - N/A   Clear
11:15 PM 78.8 °F - 77.0 °F 94% 30.03 in 10.0 mi SW 3.5 mph - N/A   Clear
11:35 PM 78.8 °F - 77.0 °F 94% 30.02 in 7.0 mi Calm Calm - N/A   Clear
11:55 PM 78.8 °F - 77.0 °F 94% 30.02 in 7.0 mi Calm Calm - N/A   Clear